Weather History for KTBN - October, 2013

Change the Weather History Date:

Wednesday, October 30, 2013

  Actual Average Record
Temperature  
Mean Temperature 66 °F -  
Max Temperature 71 °F 61 °F 78 °F (1999)
Min Temperature 62 °F 46 °F 26 °F (2012)
Cooling Degree Days 2    
Growing Degree Days 16 (Base 50)    
Moisture  
Dew Point 64 °F    
Average Humidity 94    
Maximum Humidity 100    
Minimum Humidity 81    
Precipitation  
Precipitation 0.06 in - - ()
Sea Level Pressure  
Sea Level Pressure 29.95 in    
Wind  
Wind Speed 8 mph (South)    
Max Wind Speed 16 mph    
Max Gust Speed 26 mph    
Visibility 10 miles    
Events Rain    
Averages and records for this station are not official NWS values.
T = Trace of Precipitation, MM = Missing Value Source: NWS Daily Summary

Daily Weather History Graph

Daily Weather History Graph

Search for Another Location

Airport or City:

Trip Planner

Search our weather history database for the weather conditions in past years. The results will help you decide how hot, cold, wet, or windy it might be!

Date:

Astronomy

Oct. 30, 2013 Rise Set
Actual Time 7:32 AM CDT 6:11 PM CDT
Civil Twilight 7:04 AM CDT 6:38 PM CDT
Nautical Twilight 6:34 AM CDT 7:09 PM CDT
Astronomical Twilight 6:03 AM CDT 7:40 PM CDT
Moon 3:25 AM CDT (10/30) 3:53 PM CDT (10/30)
Length of Visible Light 11h 33m
Length of Day
10h 39m
Waning Crescent, 17% of the Moon is Illuminated
Oct 30
Waning Crescent
Nov 3
New
Nov 9
First Quarter
Nov 17
Full
Nov 25
Last Quarter

Hourly Weather History & Observations

Time (CDT) Temp. Dew Point Humidity Pressure Visibility Wind Dir Wind Speed Gust Speed Precip Events Conditions
12:58 AM 62.2 °F 62.2 °F 100% 30.05 in 10.0 mi South 4.6 mph - N/A   Mostly Cloudy
1:58 AM 63.3 °F 63.3 °F 100% 30.05 in 10.0 mi South 5.8 mph - N/A   Mostly Cloudy
2:58 AM 62.6 °F 62.6 °F 100% 30.05 in 10.0 mi SSE 4.6 mph - N/A   Mostly Cloudy
3:58 AM 62.1 °F 62.1 °F 100% 30.04 in 10.0 mi SSE 6.9 mph - N/A   Mostly Cloudy
4:03 AM 62.6 °F 62.6 °F 100% 30.04 in 10.0 mi SSE 6.9 mph - N/A   Mostly Cloudy
4:08 AM 62.6 °F 62.6 °F 100% 30.05 in 10.0 mi SSE 6.9 mph - N/A   Mostly Cloudy
4:43 AM 62.6 °F 62.6 °F 100% 30.05 in 10.0 mi SSE 6.9 mph - N/A   Mostly Cloudy
4:58 AM 62.4 °F 62.4 °F 100% 30.05 in 10.0 mi South 5.8 mph - N/A   Scattered Clouds
5:58 AM 63.5 °F 63.5 °F 100% 30.05 in 10.0 mi South 6.9 mph - N/A   Mostly Cloudy
6:58 AM 64.4 °F 64.4 °F 100% 30.05 in 10.0 mi South 6.9 mph - N/A   Overcast
7:43 AM 64.4 °F 64.4 °F 100% 30.04 in 10.0 mi SSE 9.2 mph - N/A   Mostly Cloudy
7:58 AM 64.9 °F 64.9 °F 100% 30.04 in 10.0 mi South 8.1 mph - N/A   Mostly Cloudy
8:58 AM 65.8 °F 65.8 °F 100% 30.02 in 10.0 mi South 6.9 mph - N/A   Clear
9:58 AM 71.1 °F 66.0 °F 84% 30.02 in 10.0 mi South 9.2 mph - N/A   Mostly Cloudy
10:58 AM 71.4 °F 65.5 °F 81% 29.99 in 10.0 mi South 8.1 mph - N/A   Mostly Cloudy
11:58 AM 69.3 °F 64.6 °F 85% 30.00 in 10.0 mi South 9.2 mph 19.6 mph N/A   Mostly Cloudy
12:18 PM 68.0 °F 64.4 °F 88% 30.01 in 10.0 mi South 11.5 mph 16.1 mph N/A   Overcast
12:58 PM 68.2 °F 64.0 °F 87% 29.98 in 10.0 mi South 8.1 mph 16.1 mph N/A   Overcast
1:13 PM 68.0 °F 64.4 °F 88% 29.98 in 10.0 mi South 8.1 mph 17.3 mph N/A   Overcast
1:28 PM 68.0 °F 64.4 °F 88% 29.97 in 10.0 mi South 9.2 mph - N/A   Overcast
1:58 PM 68.9 °F 63.7 °F 83% 29.94 in 10.0 mi South 9.2 mph - N/A   Overcast
2:09 PM 69.8 °F 64.4 °F 83% 29.95 in 10.0 mi South 10.4 mph - N/A   Light Drizzle
2:14 PM 69.8 °F 64.4 °F 83% 29.95 in 10.0 mi South 9.2 mph - N/A   Light Drizzle
2:28 PM 68.0 °F 64.4 °F 88% 29.94 in 10.0 mi Variable 5.8 mph - N/A   Mostly Cloudy
2:38 PM 69.8 °F 64.4 °F 83% 29.94 in 10.0 mi Variable 5.8 mph - N/A   Mostly Cloudy
2:43 PM 69.8 °F 64.4 °F 83% 29.94 in 10.0 mi South 8.1 mph - N/A   Overcast
2:58 PM 69.8 °F 64.0 °F 82% 29.92 in 10.0 mi South 8.1 mph - 0.00 in   Mostly Cloudy
3:17 PM 69.8 °F 64.4 °F 83% 29.93 in 10.0 mi South 8.1 mph - N/A   Light Drizzle
3:24 PM 68.0 °F 66.2 °F 94% 29.89 in 10.0 mi South 6.9 mph - N/A   Light Drizzle
3:27 PM 69.8 °F 64.4 °F 83% 29.94 in 10.0 mi South 9.2 mph 16.1 mph N/A   Mostly Cloudy
3:55 PM 68.7 °F 64.8 °F 87% 29.89 in 10.0 mi South 9.2 mph 17.3 mph 0.00 in   Overcast
4:55 PM 66.0 °F 66.0 °F 100% 29.89 in 10.0 mi South 5.8 mph - 0.01 in Rain Light Rain
5:04 PM 66.2 °F 66.2 °F 100% 29.92 in 10.0 mi South 8.1 mph - N/A   Overcast
5:10 PM 66.2 °F 66.2 °F 100% 29.92 in 10.0 mi Variable 5.8 mph - N/A   Light Drizzle
5:55 PM 64.4 °F 64.4 °F 100% 29.91 in 8.0 mi South 9.2 mph - N/A   Light Drizzle
5:58 PM 65.1 °F 65.1 °F 100% 29.91 in 8.0 mi Variable 6.9 mph - 0.01 in   Light Drizzle
6:58 PM 64.8 °F 64.8 °F 100% 29.89 in 10.0 mi South 10.4 mph - 0.02 in Rain Light Rain
7:48 PM 64.4 °F 64.4 °F 100% 29.88 in 10.0 mi SSE 12.7 mph 18.4 mph N/A Rain Light Rain
7:58 PM 64.6 °F 64.6 °F 100% 29.88 in 10.0 mi South 12.7 mph - 0.02 in   Light Drizzle
7:59 PM 64.4 °F 64.4 °F 100% 29.89 in 10.0 mi South 13.8 mph - N/A   Overcast
8:07 PM 64.4 °F 64.4 °F 100% 29.88 in 10.0 mi South 12.7 mph - N/A   Light Drizzle
8:23 PM 64.4 °F 64.4 °F 100% 29.88 in 10.0 mi South 11.5 mph 18.4 mph N/A   Overcast
8:43 PM 64.4 °F 64.4 °F 100% 29.89 in 10.0 mi South 8.1 mph 17.3 mph N/A   Overcast
8:58 PM 64.0 °F 64.0 °F 100% 29.86 in 10.0 mi South 11.5 mph 18.4 mph 0.00 in   Overcast
9:28 PM 64.4 °F 64.4 °F 100% 29.87 in 10.0 mi South 10.4 mph 16.1 mph N/A   Overcast
9:58 PM 63.5 °F 63.0 °F 98% 29.86 in 10.0 mi South 12.7 mph 18.4 mph N/A   Overcast
10:38 PM 64.4 °F 60.8 °F 88% 29.86 in 10.0 mi South 12.7 mph 21.9 mph N/A   Mostly Cloudy
10:58 PM 63.3 °F 61.3 °F 93% 29.84 in 10.0 mi South 13.8 mph 19.6 mph N/A   Scattered Clouds
11:13 PM 64.4 °F 60.8 °F 88% 29.84 in 10.0 mi South 16.1 mph 25.3 mph N/A   Mostly Cloudy
11:58 PM 63.9 °F 61.0 °F 90% 29.81 in 10.0 mi SSW 9.2 mph 26.5 mph N/A   Overcast